User: anonymous   Login
Location: Unspecified
(0.0000°N, 0.0000°E)
Time: 08:58:31
(UTC+00:00)
Language:

WGS 8 (USA 272) - Orbit

View from above orbital plane
View from above orbital plane
View from above satellite
View from above satellite

Ground track
Ground track

The orbit data is extracted from the following two-line orbital elements,

1 41879U 16075A   17108.24962858 0.00000000  00000-0  00000-0 0    02
2 41879   0.0140 174.5207 0003452 345.3988  14.5923  1.00270000    00
Epoch (UTC): 18 April 2017 05:59:27
Eccentricity: 0.0003452
inclination: 0.0140°
perigee height: 35772 km
apogee height: 35801 km
right ascension of ascending node: 174.5207°
argument of perigee: 345.3988°
revolutions per day: 1.00270000
mean anomaly at epoch: 14.5923°
orbit number at epoch: 0

The dashed part of the orbit path shows where the satellite is in the earth's shadow,  

DLR